Hourly Data Report for September 18, 2017

All times are specified in Local Standard Time (LST). Add 1 hour to adjust for Daylight Saving Time where and when it is observed.

EUREKA CLIMATE
NUNAVUT

79°59'21.000" N
85°56'02.000" W
10.00 m
2401199
71613
NEK

Download Data

Hourly Data (September 2017)
Hourly Data Report for September 18, 2017
Temp Definition
°C
Dew Point Temp Definition
°C
Rel Hum Definition
%
Wind Dir Definition
10's deg

Wind Spd Definition
km/h
Visibility Definition
km
Stn Press Definition
kPa
Hmdx Definition


Wind Chill Definition


Weather Definition


TIME
00:00 -8.5 -10.2 87 11 16   100.72   -15 LegendNANA
01:00 -7.6 -9.4 87 13 18   100.76   -14 LegendNANA
02:00 -7.0 -8.8 87 13 18   100.79   -14 LegendNANA
03:00 -6.7 -8.3 88 13 14   100.81   -12 LegendNANA
04:00 -6.7 -8.0 90 12 12   100.85   -12 LegendNANA
05:00 -6.8 -8.2 89 17 5   100.88   -9 LegendNANA
06:00 -6.7 -8.5 87 8 4   100.90   -9 LegendNANA
07:00 -6.8 -8.0 91 9 5   100.95   -9 LegendNANA
08:00 -7.6 -8.7 92 11 4   100.97   -10 LegendNANA
09:00 -7.1 -8.3 91 13 4   101.03   -9 LegendNANA
10:00 -6.3 -7.4 92 11 14   101.05   -12 LegendNANA
11:00 -6.5 -8.0 89 12 17   101.09   -13 LegendNANA
12:00 -5.9 -7.9 86 15 11   101.12   -11 LegendNANA
13:00 -5.7 -7.6 87 16 16   101.15   -12 LegendNANA
14:00 -5.9 -7.8 87 11 5   101.24   -8 LegendNANA
15:00 -6.0 -7.3 91 12 12   101.31   -11 LegendNANA
16:00 -6.2 -6.8 95 13 11   101.39   -11 LegendNANA
17:00 -6.1 -7.1 92 13 16   101.44   -12 LegendNANA
18:00 -6.2 -7.2 93 10 14   101.51   -12 LegendNANA
19:00 -7.7 -8.3 96 13 14   101.57   -14 LegendNANA
20:00 -8.3 -9.4 92 12 13   101.61   -14 LegendNANA
21:00 -8.2 -8.7 96 12 6   101.69   -11 LegendNANA
22:00 -8.1 -8.6 96 10 4   101.77   -10 LegendNANA
23:00 -7.7 -8.2 96 13 5   101.82   -10 LegendNANA

Notes on Data Quality.

Legend

  • E = Estimated
  • M = Missing
  • NA = Not Available
  • ‡ = Partner data that is not subject to review by the National Climate Archives
Date modified: